FW6725 Weather Reports


Display with metric or nautical units.
time (UTC)temp
F
wind
direction
speed
MPH
gust
MPH
rain 1hr
in
rain 24hr
in
rain mn
in
humidity
%
barometer
mb
20260901104600 65 206 8.0 14.0 0.00 0.07 0.00 76 1007.8
20260901103539 65 201 9.0 14.0 0.00 0.07 0.00 76 1007.8
20260901102558 65 212 10.0 15.0 0.00 0.07 0.00 76 1007.8
20260901101537 65 212 9.0 15.0 0.00 0.07 0.00 75 1007.8
20260901100538 64 214 11.0 16.0 0.00 0.07 0.00 77 1007.7
20260901095555 64 212 10.0 15.0 0.00 0.07 0.00 78 1007.7
20260901094534 64 209 8.0 15.0 0.00 0.07 0.00 78 1007.6
20260901093553 64 203 7.0 15.0 0.00 0.07 0.00 77 1007.6
20260901092534 65 203 8.0 14.0 0.00 0.07 0.00 77 1007.5
20260901091552 65 201 8.0 14.0 0.00 0.07 0.00 77 1007.5
20260901090531 65 194 6.0 10.0 0.00 0.07 0.00 80 1007.5
20260901085530 64 216 8.0 12.0 0.00 0.07 0.00 82 1007.5
20260901084529 64 209 7.0 12.0 0.00 0.07 0.00 82 1007.5
20260901083528 64 209 5.0 11.0 0.00 0.07 0.00 80 1007.5
20260901082527 63 208 8.0 13.0 0.00 0.09 0.00 86 1007.5
20260901081526 63 196 6.0 10.0 0.00 0.11 0.00 85 1007.5
20260901080527 63 212 6.0 10.0 0.00 0.12 0.00 86 1007.5
20260901075525 62 193 5.0 10.0 0.00 0.14 0.00 89 1007.4
20260901074523 62 193 5.0 9.0 0.00 0.14 0.00 89 1007.4
20260901073524 62 200 4.0 8.0 0.00 0.14 0.00 91 1007.4
20260901072523 61 207 6.0 9.0 0.00 0.14 0.00 92 1007.4
20260901071522 61 204 5.0 9.0 0.00 0.14 0.00 93 1007.4
20260901070521 61 194 4.0 9.0 0.00 0.14 0.00 93 1007.4
20260901065521 61 196 6.0 10.0 0.00 0.14 0.00 93 1007.4
20260901064519 61 207 6.0 10.0 0.00 0.14 0.00 93 1007.3
20260901063518 61 199 4.0 7.0 0.00 0.15 0.00 94 1007.3
20260901062517 61 205 5.0 9.0 0.00 0.15 0.00 94 1007.3
20260901061607 60 190 4.0 8.0 0.00 0.15 0.00 95 1007.2
20260901060545 60 198 4.0 8.0 0.00 0.16 0.00 95 1007.3
20260901055544 60 196 4.0 7.0 0.00 0.17 0.00 96 1007.3
20260901054544 59 196 5.0 9.0 0.00 0.17 0.00 97 1007.3
20260901053542 59 178 4.0 9.0 0.00 0.18 0.00 98 1007.3
20260901052541 59 173 4.0 7.0 0.00 0.18 0.00 98 1007.3
20260901051540 59 185 3.0 7.0 0.00 0.18 0.00 98 1007.3
20260901050559 59 194 4.0 7.0 0.00 0.18 0.00 98 1007.3
20260901045539 59 171 3.0 5.0 0.00 0.18 0.00 98 1007.3
20260901044537 58 159 3.0 5.0 0.00 0.22 0.00 98 1007.2
20260901043536 58 163 3.0 5.0 0.00 0.26 0.00 98 1007.2
20260901042535 58 177 3.0 5.0 0.00 0.30 0.00 98 1007.2
20260901041534 58 199 4.0 6.0 0.00 0.33 0.00 98 1007.3
20260901040533 58 197 4.0 6.0 0.00 0.34 0.00 98 1007.2
20260901035533 58 196 3.0 6.0 0.00 0.34 0.00 98 1007.3
20260901034531 58 194 4.0 6.0 0.00 0.34 0.00 98 1007.2
20260901033530 58 201 4.0 6.0 0.00 0.34 0.00 98 1007.3
20260901032529 58 201 4.0 6.0 0.00 0.36 0.00 98 1007.2
20260901031530 58 200 4.0 6.0 0.00 0.37 0.00 98 1007.2
20260901030530 58 195 4.0 7.0 0.00 0.37 0.00 98 1007.3
20260901025529 58 202 6.0 9.0 0.00 0.37 0.00 98 1007.2
20260901024527 58 207 7.0 10.0 0.00 0.37 0.00 98 1007.2
20260901023526 57 212 7.0 10.0 0.00 0.37 0.00 98 1007.2
20260901022524 57 206 7.0 10.0 0.00 0.37 0.00 98 1007.2
20260901021544 57 204 7.0 11.0 0.00 0.37 0.00 98 1007.2
20260901020523 57 203 6.0 11.0 0.00 0.37 0.00 98 1007.3
20260901015522 57 196 7.0 12.0 0.00 0.37 0.00 98 1007.2
20260901014521 57 192 6.0 12.0 0.00 0.37 0.00 98 1007.1
20260901013520 57 185 6.0 9.0 0.00 0.37 0.00 98 1007.1
20260901012519 57 190 5.0 9.0 0.00 0.37 0.00 98 1007.1
20260901011538 57 186 5.0 9.0 0.00 0.37 0.00 98 1007.1
20260901010517 57 187 5.0 7.0 0.00 0.37 0.00 98 1007.1
20260901005606 56 180 4.0 8.0 0.00 0.37 0.00 98 1007.1
20260901004545 56 182 4.0 8.0 0.00 0.37 0.00 98 1007.0
20260901003544 56 187 5.0 8.0 0.00 0.37 0.00 98 1007.1
20260901002543 57 186 5.0 8.0 0.00 0.37 0.00 98 1007.2
20260901001622 57 187 5.0 9.0 0.00 0.37 0.00 97 1007.2
20260901000601 57 192 5.0 9.0 0.00 0.37 0.00 97 1007.3
20260831235540 57 190 5.0 8.0 0.00 0.37 0.37 97 1007.3
20260831234619 57 190 5.0 9.0 0.00 0.37 0.37 96 1007.3
20260831233538 57 188 5.0 10.0 0.00 0.37 0.37 96 1007.5
20260831232537 58 186 5.0 10.0 0.00 0.37 0.37 96 1007.4
20260831231536 58 190 5.0 8.0 0.00 0.37 0.37 96 1007.4
20260831230535 58 186 5.0 9.0 0.00 0.37 0.37 96 1007.5
20260831225534 58 184 5.0 9.0 0.00 0.37 0.37 96 1007.6
20260831224532 58 187 4.0 8.0 0.00 0.37 0.37 96 1007.4
20260831223532 58 188 4.0 7.0 0.00 0.37 0.37 96 1007.4
20260831222551 58 198 4.0 7.0 0.00 0.37 0.37 95 1007.4
20260831221530 58 203 4.0 7.0 0.00 0.37 0.37 95 1007.5
20260831220529 59 205 4.0 7.0 0.00 0.37 0.37 95 1007.4
20260831215528 59 215 6.0 9.0 0.00 0.37 0.37 94 1007.5
20260831214527 59 221 6.0 9.0 0.00 0.38 0.37 95 1007.4
20260831213526 59 222 6.0 9.0 0.00 0.39 0.37 94 1007.3
20260831212525 59 214 6.0 10.0 0.00 0.39 0.37 95 1007.4
20260831211524 59 218 8.0 11.0 0.00 0.39 0.37 94 1007.3
20260831210523 59 220 8.0 11.0 0.00 0.39 0.37 94 1007.3
20260831205523 59 215 8.0 12.0 0.00 0.39 0.37 95 1007.2
20260831204521 59 223 8.0 13.0 0.00 0.39 0.37 95 1007.2
20260831203522 59 229 7.0 13.0 0.00 0.39 0.37 95 1007.2
20260831202521 59 228 7.0 12.0 0.00 0.39 0.37 95 1007.0
20260831201521 59 228 8.0 12.0 0.01 0.39 0.37 95 1007.0
20260831200539 60 222 9.0 12.0 0.02 0.39 0.37 95 1007.0
20260831195518 60 225 8.0 14.0 0.03 0.39 0.37 95 1007.0
20260831194547 60 232 8.0 18.0 0.03 0.39 0.37 96 1006.8
20260831193546 60 227 11.0 18.0 0.03 0.39 0.37 96 1006.8
20260831192545 60 221 11.0 16.0 0.02 0.38 0.37 96 1006.8
20260831191604 60 219 11.0 16.0 0.02 0.38 0.36 97 1006.7
20260831190544 60 220 10.0 15.0 0.00 0.37 0.35 96 1006.7
20260831185542 61 221 10.0 15.0 0.00 0.36 0.34 94 1006.6
20260831184541 61 223 10.0 15.0 0.00 0.36 0.34 93 1006.5
20260831183621 61 223 10.0 16.0 0.00 0.36 0.34 93 1006.4
20260831182539 61 218 11.0 16.0 0.00 0.36 0.34 93 1006.4
20260831181538 61 218 11.0 16.0 0.00 0.36 0.34 94 1006.4
20260831180536 61 216 11.0 18.0 0.00 0.36 0.34 93 1006.4
20260831175535 61 214 12.0 18.0 0.00 0.36 0.34 94 1006.2
20260831174534 61 211 12.0 19.0 0.00 0.36 0.34 94 1006.1
20260831173535 61 212 12.0 20.0 0.00 0.36 0.34 94 1006.1
20260831172534 62 213 12.0 18.0 0.00 0.36 0.34 93 1006.0
20260831171533 62 212 11.0 18.0 0.00 0.36 0.34 93 1006.0
20260831170531 62 214 10.0 18.0 0.00 0.36 0.34 93 1005.9
20260831165531 62 215 11.0 18.0 0.00 0.36 0.34 92 1005.8
20260831164530 62 220 12.0 19.0 0.00 0.36 0.34 92 1005.7
20260831163529 62 223 10.0 19.0 0.00 0.36 0.34 92 1005.6
20260831162529 62 215 10.0 13.0 0.00 0.36 0.34 93 1005.6
20260831161547 63 211 10.0 17.0 0.00 0.36 0.34 93 1005.4
20260831160526 63 208 11.0 18.0 0.00 0.36 0.34 92 1005.3
20260831155605 63 217 11.0 15.0 0.00 0.36 0.34 92 1005.3
20260831154524 63 213 11.0 18.0 0.00 0.36 0.34 92 1005.2
20260831153523 63 212 12.0 19.0 0.00 0.36 0.34 92 1005.3
20260831152522 63 215 12.0 16.0 0.00 0.36 0.34 92 1005.3
20260831151521 64 215 10.0 16.0 0.00 0.36 0.34 92 1005.2
20260831150520 63 217 11.0 18.0 0.00 0.36 0.34 92 1005.2
20260831145539 64 220 12.0 17.0 0.00 0.36 0.34 93 1005.2
20260831144518 63 221 12.0 18.0 0.00 0.36 0.34 92 1005.1
20260831143517 63 221 11.0 19.0 0.00 0.36 0.34 93 1005.0
20260831142545 64 218 12.0 19.0 0.00 0.36 0.34 91 1005.0
20260831141544 64 220 12.0 18.0 0.00 0.36 0.34 91 1004.9
20260831140543 64 219 11.0 17.0 0.00 0.36 0.34 92 1004.8
20260831135603 64 213 10.0 18.0 0.00 0.36 0.34 92 1004.7
20260831134542 64 211 9.0 15.0 0.00 0.36 0.34 94 1004.7
20260831133540 64 211 9.0 15.0 0.00 0.36 0.34 94 1004.7
20260831132559 64 216 9.0 15.0 0.03 0.36 0.34 94 1004.7
20260831131539 64 217 9.0 15.0 0.03 0.36 0.34 93 1004.6
20260831130538 64 205 9.0 14.0 0.04 0.36 0.34 95 1004.5
20260831125537 64 211 8.0 14.0 0.04 0.36 0.34 96 1004.5
20260831124536 64 201 6.0 13.0 0.04 0.36 0.34 96 1004.5
20260831123535 64 196 6.0 14.0 0.04 0.36 0.34 96 1004.3
20260831122534 64 192 6.0 12.0 0.01 0.33 0.31 94 1004.3
20260831121653 64 195 7.0 12.0 0.00 0.33 0.31 94 1004.3
20260831120552 64 187 7.0 13.0 0.00 0.33 0.31 93 1004.3
20260831115531 65 187 7.0 12.0 0.00 0.32 0.31 92 1004.3
20260831114530 65 199 7.0 13.0 0.00 0.32 0.31 91 1004.3
20260831113529 65 201 8.0 13.0 0.00 0.32 0.31 91 1004.2
20260831112529 65 197 7.0 13.0 0.00 0.32 0.31 92 1004.2
20260831111528 65 204 8.0 16.0 0.00 0.32 0.31 92 1004.1
20260831110528 65 209 8.0 16.0 0.00 0.32 0.31 93 1004.1
20260831105526 64 200 8.0 14.0 0.00 0.32 0.31 94 1004.0